TimeEDT,TemperatureF,Dew PointF,Humidity,Sea Level PressureIn,VisibilityMPH,Wind Direction,Wind SpeedMPH,Gust SpeedMPH,PrecipitationIn,Events,Conditions,WindDirDegrees,DateUTC
12:53 AM,45.0,43.0,93,30.12,7.0,Calm,Calm,-,N/A,,Clear,0,2012-10-27 04:53:00
1:53 AM,43.0,41.0,93,30.11,10.0,Calm,Calm,-,N/A,,Clear,0,2012-10-27 05:53:00
2:53 AM,43.0,39.9,89,30.10,10.0,Calm,Calm,-,N/A,,Clear,0,2012-10-27 06:53:00
3:50 AM,42.8,39.2,87,30.08,9.0,Calm,Calm,-,N/A,,Partly Cloudy,0,2012-10-27 07:50:00
3:53 AM,42.1,39.9,92,30.08,9.0,Calm,Calm,-,N/A,,Partly Cloudy,0,2012-10-27 07:53:00
4:53 AM,41.0,39.9,96,30.06,10.0,Calm,Calm,-,N/A,,Clear,0,2012-10-27 08:53:00
5:42 AM,41.0,39.2,93,30.05,10.0,Calm,Calm,-,N/A,,Scattered Clouds,0,2012-10-27 09:42:00
5:51 AM,41.0,39.2,93,30.05,9.0,Calm,Calm,-,N/A,,Mostly Cloudy,0,2012-10-27 09:51:00
5:53 AM,41.0,39.0,93,30.06,9.0,Calm,Calm,-,N/A,,Mostly Cloudy,0,2012-10-27 09:53:00
6:07 AM,41.0,39.2,93,30.05,0.8,Calm,Calm,-,N/A,,Mist,0,2012-10-27 10:07:00
6:20 AM,41.0,39.2,93,30.05,1.0,Calm,Calm,-,N/A,,Mist,0,2012-10-27 10:20:00
6:28 AM,39.2,39.2,100,30.05,0.5,Calm,Calm,-,N/A,Fog,Fog,0,2012-10-27 10:28:00
6:53 AM,41.0,39.0,93,30.05,0.2,Calm,Calm,-,N/A,Fog,Fog,0,2012-10-27 10:53:00
7:53 AM,42.1,41.0,96,30.07,1.0,Calm,Calm,-,N/A,,Mist,0,2012-10-27 11:53:00
8:45 AM,48.2,46.4,93,30.08,7.0,Calm,Calm,-,N/A,,Clear,0,2012-10-27 12:45:00
8:53 AM,50.0,48.9,96,30.08,10.0,Calm,Calm,-,N/A,,Clear,0,2012-10-27 12:53:00
9:53 AM,60.1,53.1,78,30.06,10.0,Calm,Calm,-,N/A,,Clear,0,2012-10-27 13:53:00
10:53 AM,63.0,52.0,67,30.06,10.0,ENE,3.5,-,N/A,,Clear,60,2012-10-27 14:53:00
11:53 AM,66.0,52.0,60,30.03,10.0,Variable,4.6,-,N/A,,Clear,0,2012-10-27 15:53:00
12:53 PM,66.9,52.0,59,30.01,10.0,Variable,4.6,-,N/A,,Partly Cloudy,0,2012-10-27 16:53:00
1:53 PM,66.9,52.0,59,30.00,10.0,SE,8.1,-,N/A,,Partly Cloudy,140,2012-10-27 17:53:00
2:53 PM,66.0,48.0,52,29.99,10.0,ENE,9.2,-,N/A,,Clear,70,2012-10-27 18:53:00
3:53 PM,64.0,46.9,54,29.99,10.0,ENE,8.1,-,N/A,,Clear,70,2012-10-27 19:53:00
4:53 PM,61.0,44.1,54,29.99,10.0,ENE,8.1,-,N/A,,Clear,60,2012-10-27 20:53:00
5:53 PM,57.0,43.0,59,30.00,10.0,NE,9.2,-,N/A,,Clear,50,2012-10-27 21:53:00
6:53 PM,55.0,44.1,67,30.01,10.0,NNE,3.5,-,N/A,,Clear,20,2012-10-27 22:53:00
7:53 PM,54.0,48.0,80,30.00,10.0,NNE,5.8,-,N/A,,Clear,20,2012-10-27 23:53:00
8:53 PM,54.0,48.9,83,29.99,10.0,NNE,6.9,-,N/A,,Clear,20,2012-10-28 00:53:00
9:53 PM,54.0,50.0,86,29.99,10.0,NNE,5.8,-,N/A,,Clear,20,2012-10-28 01:53:00
10:53 PM,53.1,50.0,89,29.98,10.0,NNE,6.9,-,N/A,,Clear,20,2012-10-28 02:53:00
11:53 PM,53.6,51.8,94,29.97,10.0,NNE,5.8,-,N/A,,Clear,20,2012-10-28 03:53:00